Regional Weather Roundup
Issued by NWS

Home | Current Version | Previous Version | Graphics & Text | Print | Product List | Glossary On
Versions: 1 2 3 4 5 6 7 8 9 10 11 12 13 14 15 16 17 18 19 20 21 22 23 24 25 26 27 28 29 30 31 32 33 34 35 36 37 38 39 40 41 42 43 44 45 46 47 48 49 50
000
ASUS43 KOAX 181102
RWRNE

WEATHER ROUNDUP FOR NEBRASKA
NATIONAL WEATHER SERVICE OMAHA NE
600 AM CDT SAT APR 18 2015

NOTES: SATELLITE DATA IS BEING USED TO AUGMENT CLOUD COVER ABOVE
       12000 FEET.
       "FAIR" INDICATES FEW OR NO CLOUDS BELOW 12,000 FEET WITH NO
       SIGNIFICANT WEATHER AND/OR OBSTRUCTIONS TO VISIBILITY.

  * THESE STATIONS DO NOT REPORT WEATHER SUCH AS RAIN...SNOW OR FOG.

NEZ001>004-019>022-054>056-181200-
NEBRASKA PANHANDLE

CITY           SKY/WX    TMP DP  RH WIND       PRES   REMARKS
SCOTTSBLUFF    LGT RAIN  42  42 100 NW5       29.95F
ALLIANCE       LGT RAIN  45  44  97 CALM      29.95S FOG
CHADRON        CLOUDY    47  46  97 N10       29.96F
SIDNEY         CLOUDY    40  38  93 NW7       29.94S
$$

NEZ057>060-069>072-079>082-181200-
SOUTHWEST NEBRASKA

CITY           SKY/WX    TMP DP  RH WIND       PRES   REMARKS
NORTH PLATTE   CLOUDY    49  46  90 N8        29.90F
IMPERIAL       PTCLDY    44  42  93 NW6       29.91F
LEXINGTON      CLOUDY    52  50  93 NW9       29.91R
MCCOOK         CLEAR     47  44  90 N8        29.89F
$$

NEZ005>010-023>029-035>040-094-181200-
NORTH CENTRAL NEBRASKA

CITY           SKY/WX    TMP DP  RH WIND       PRES   REMARKS
VALENTINE      LGT RAIN  50  45  83 NE13      29.93F
AINSWORTH      LGT RAIN  51  50  95 NE10      29.92F
BROKEN BOW     CLOUDY    53  51  93 N9        29.90F
$$

NEZ041-046>049-061>064-073>077-083>087-181200-
SOUTH CENTRAL NEBRASKA

CITY           SKY/WX    TMP DP  RH WIND       PRES   REMARKS
GRAND ISLAND   LGT RAIN  57  55  93 SW13      29.92R FOG
HASTINGS       LGT RAIN  56  55  97 SW3       29.92S FOG
KEARNEY *      CLOUDY    54  52  94 NE14      29.88F
YORK           CLOUDY    59  55  88 SE9       29.90F
$$

NEZ011>018-030>034-042>045-181200-
NORTHEAST NEBRASKA

CITY           SKY/WX    TMP DP  RH WIND       PRES   REMARKS
BLAIR          CLOUDY    59  52  77 E8        29.93S
COLUMBUS *     CLOUDY    57  50  77 E6        29.94R
FREMONT        CLOUDY    60  53  78 NE6       29.93S
TEKAMAH        CLOUDY    58  51  78 N10       29.93F
$$

NEZ050>053-065>068-078-088>093-181200-
SOUTHEAST NEBRASKA

CITY           SKY/WX    TMP DP  RH WIND       PRES   REMARKS
LINCOLN        CLOUDY    61  55  81 SE5       29.91F
OMAHA EPPLEY   CLOUDY    63  55  75 SE6       29.92F
FALLS CITY     CLOUDY    59  55  87 E3        29.90F
PLATTSMOUTH    CLOUDY    59  53  79 E6        29.92S
$$

NEZ044-045-051>053-067-181200-
OMAHA AREA

CITY           SKY/WX    TMP DP  RH WIND       PRES   REMARKS
OMAHA EPPLEY   CLOUDY    63  55  75 SE6       29.92F
BLAIR          CLOUDY    59  52  77 E8        29.93S
FREMONT        CLOUDY    60  53  78 NE6       29.93S
OFFUTT AFB     CLOUDY    59  56  88 NE5       29.91F
PLATTSMOUTH    CLOUDY    59  53  79 E6        29.92S
$$



USA.gov is the U.S. government's official web portal to all federal, state and local government web resources and services.